CFG3160 EDDN-EDDF

Flight info

Callsign CFG3160
Flight time 0h 32m
Altitude 22000
Route SUKAD1G SUKAD DCT PIWAW T159 SPESA SPESA5B
Aircraft A320/M-SDE3FGHIRWY/LB1

Departure

Time 2026-04-16 11:21
Airport Nuremberg Airport (EDDN)

Arrival

Time 2026-04-16 11:53
Airport Frankfurt Main Airport (EDDF)
Time Latitude Longitude Altitude Speed Heading
2026-04-16 10:47 49.49524 11.07724 1024 ft 0 kts 188°
2026-04-16 11:10 49.49525 11.07724 1026 ft 1 kts 188°
2026-04-16 11:11 49.49547 11.07729 1026 ft 3 kts 188°
2026-04-16 11:11 49.49570 11.07735 1026 ft 3 kts 188°
2026-04-16 11:11 49.49590 11.07744 1027 ft 3 kts 222°
2026-04-16 11:11 49.49608 11.07762 1027 ft 3 kts 188°
2026-04-16 11:12 49.49631 11.07768 1027 ft 3 kts 188°
2026-04-16 11:12 49.49648 11.07772 1027 ft 0 kts 188°
2026-04-16 11:15 49.49626 11.07767 1027 ft 9 kts 189°
2026-04-16 11:15 49.49582 11.07801 1027 ft 7 kts 101°
2026-04-16 11:16 49.49576 11.07871 1027 ft 7 kts 98°
2026-04-16 11:16 49.49566 11.07964 1027 ft 9 kts 98°
2026-04-16 11:16 49.49553 11.08098 1028 ft 16 kts 98°
2026-04-16 11:16 49.49535 11.08280 1028 ft 14 kts 98°
2026-04-16 11:17 49.49579 11.08355 1032 ft 8 kts
2026-04-16 11:17 49.49617 11.08411 1034 ft 10 kts 84°
2026-04-16 11:17 49.49604 11.08551 1035 ft 18 kts 98°
2026-04-16 11:17 49.49586 11.08736 1037 ft 17 kts 99°
2026-04-16 11:18 49.49570 11.08897 1038 ft 14 kts 98°
2026-04-16 11:18 49.49554 11.09059 1040 ft 21 kts 98°
2026-04-16 11:18 49.49531 11.09288 1044 ft 15 kts 99°
2026-04-16 11:18 49.49558 11.09418 1047 ft 11 kts 53°
2026-04-16 11:19 49.49597 11.09498 1050 ft 9 kts 53°
2026-04-16 11:19 49.49641 11.09576 1052 ft 9 kts 26°
2026-04-16 11:19 49.49689 11.09588 1053 ft 5 kts
2026-04-16 11:19 49.49696 11.09565 1053 ft 0 kts 278°
2026-04-16 11:20 49.49697 11.09554 1052 ft 13 kts 278°
2026-04-16 11:20 49.49755 11.08972 1043 ft 92 kts 278°
2026-04-16 11:20 49.49882 11.07700 1029 ft 150 kts 278°
2026-04-16 11:20 49.50025 11.06027 1569 ft 154 kts 278°
2026-04-16 11:21 49.50162 11.04384 2290 ft 157 kts 278°
2026-04-16 11:21 49.50324 11.02716 2962 ft 158 kts 279°
2026-04-16 11:21 49.50506 11.00934 3327 ft 179 kts 279°
2026-04-16 11:21 49.50703 10.98948 3707 ft 196 kts 278°
2026-04-16 11:22 49.50912 10.96767 4091 ft 217 kts 278°
2026-04-16 11:22 49.51142 10.94326 4449 ft 243 kts 278°
2026-04-16 11:22 49.51407 10.91669 5133 ft 256 kts 279°
2026-04-16 11:22 49.51685 10.88934 6022 ft 260 kts 279°
2026-04-16 11:23 49.51961 10.86162 6925 ft 264 kts 279°
2026-04-16 11:23 49.52239 10.83334 7726 ft 270 kts 279°
2026-04-16 11:23 49.52520 10.80463 8605 ft 272 kts 279°
2026-04-16 11:23 49.52805 10.77564 9479 ft 275 kts 280°
2026-04-16 11:24 49.53087 10.74663 10287 ft 280 kts 280°
2026-04-16 11:24 49.53383 10.71577 10742 ft 299 kts 279°
2026-04-16 11:24 49.53693 10.68288 10984 ft 322 kts 279°
2026-04-16 11:24 49.54014 10.64854 11457 ft 334 kts 279°
2026-04-16 11:25 49.54347 10.61288 12168 ft 338 kts 279°
2026-04-16 11:25 49.54684 10.57689 12933 ft 340 kts 279°
2026-04-16 11:25 49.55234 10.54132 13700 ft 342 kts 289°
2026-04-16 11:25 49.56252 10.50813 14401 ft 345 kts 301°
2026-04-16 11:26 49.57638 10.47763 15041 ft 348 kts 305°
2026-04-16 11:26 49.59059 10.44727 15682 ft 351 kts 304°
2026-04-16 11:26 49.60492 10.41657 16318 ft 354 kts 304°
2026-04-16 11:26 49.61933 10.38560 16933 ft 357 kts 304°
2026-04-16 11:27 49.63382 10.35432 17192 ft 358 kts 304°
2026-04-16 11:27 49.64827 10.32303 17249 ft 358 kts 304°
2026-04-16 11:27 49.66268 10.29179 17256 ft 357 kts 304°
2026-04-16 11:27 49.67709 10.26050 17258 ft 357 kts 304°
2026-04-16 11:28 49.69149 10.22919 17256 ft 357 kts 304°
2026-04-16 11:28 49.70573 10.19824 17019 ft 350 kts 304°
2026-04-16 11:28 49.71977 10.16774 16760 ft 347 kts 304°
2026-04-16 11:28 49.73369 10.13747 16500 ft 345 kts 304°
2026-04-16 11:29 49.74755 10.10723 16250 ft 344 kts 304°
2026-04-16 11:29 49.76134 10.07714 16007 ft 342 kts 304°
2026-04-16 11:29 49.77511 10.04715 15749 ft 341 kts 304°
2026-04-16 11:29 49.78876 10.01729 15510 ft 340 kts 304°
2026-04-16 11:30 49.80238 9.98739 15256 ft 338 kts 304°
2026-04-16 11:30 49.81592 9.95770 15006 ft 338 kts 304°
2026-04-16 11:30 49.82945 9.92806 14763 ft 337 kts 304°
2026-04-16 11:30 49.84290 9.89854 14525 ft 336 kts 304°
2026-04-16 11:31 49.85633 9.86896 14284 ft 335 kts 304°
2026-04-16 11:31 49.86521 9.84936 14130 ft 334 kts 304°
2026-04-16 11:31 49.87851 9.81995 13867 ft 333 kts 304°
2026-04-16 11:31 49.89086 9.78958 13601 ft 332 kts 296°
2026-04-16 11:32 49.90001 9.75689 13335 ft 331 kts 292°
2026-04-16 11:32 49.90871 9.72391 13070 ft 330 kts 292°
2026-04-16 11:32 49.91737 9.69110 12807 ft 329 kts 292°
2026-04-16 11:32 49.92465 9.65754 12543 ft 328 kts 282°
2026-04-16 11:33 49.92704 9.62242 12289 ft 328 kts 270°
2026-04-16 11:33 49.92422 9.58739 12031 ft 328 kts 257°
2026-04-16 11:33 49.91659 9.55398 11774 ft 328 kts 249°
2026-04-16 11:33 49.90793 9.52125 11528 ft 327 kts 249°
2026-04-16 11:34 49.89933 9.48862 11311 ft 326 kts 249°
2026-04-16 11:34 49.89076 9.45611 11236 ft 326 kts 249°
2026-04-16 11:34 49.88216 9.42354 11247 ft 327 kts 249°
2026-04-16 11:34 49.87362 9.39085 11247 ft 326 kts 251°
2026-04-16 11:35 49.86835 9.35693 10953 ft 322 kts 264°
2026-04-16 11:35 49.86840 9.32236 10496 ft 319 kts 278°
2026-04-16 11:35 49.87350 9.28923 10140 ft 313 kts 288°
2026-04-16 11:35 49.87984 9.25763 10008 ft 300 kts 287°
2026-04-16 11:36 49.88574 9.22721 9871 ft 289 kts 287°
2026-04-16 11:36 49.89129 9.19789 9721 ft 279 kts 286°
2026-04-16 11:36 49.89666 9.16931 9419 ft 274 kts 287°
2026-04-16 11:36 49.90198 9.14106 9076 ft 272 kts 286°
2026-04-16 11:37 49.90727 9.11303 8657 ft 271 kts 286°
2026-04-16 11:37 49.91260 9.08489 8250 ft 272 kts 285°
2026-04-16 11:37 49.91792 9.05678 7839 ft 271 kts 285°
2026-04-16 11:37 49.92323 9.02883 7452 ft 270 kts 286°
2026-04-16 11:38 49.92853 9.00097 7075 ft 268 kts 285°
2026-04-16 11:38 49.93378 8.97319 6692 ft 266 kts 286°
2026-04-16 11:38 49.94120 8.94711 6304 ft 265 kts 304°
2026-04-16 11:38 49.95425 8.92718 6228 ft 267 kts 326°
2026-04-16 11:39 49.97134 8.91579 6230 ft 270 kts 347°
2026-04-16 11:39 49.99022 8.91432 6236 ft 273 kts
2026-04-16 11:39 50.00859 8.91975 6234 ft 275 kts 20°
2026-04-16 11:39 50.02536 8.93474 6236 ft 276 kts 40°
2026-04-16 11:40 50.03790 8.95726 6235 ft 278 kts 59°
2026-04-16 11:40 50.04561 8.98485 6242 ft 279 kts 70°
2026-04-16 11:40 50.05214 9.01277 6241 ft 279 kts 70°
2026-04-16 11:40 50.05877 9.04115 6243 ft 279 kts 70°
2026-04-16 11:41 50.06534 9.06944 6087 ft 277 kts 70°
2026-04-16 11:41 50.07182 9.09743 5804 ft 270 kts 70°
2026-04-16 11:41 50.07807 9.12433 5674 ft 258 kts 69°
2026-04-16 11:41 50.08407 9.14999 5533 ft 247 kts 69°
2026-04-16 11:42 50.08988 9.17483 5309 ft 241 kts 69°
2026-04-16 11:42 50.09564 9.19953 5094 ft 242 kts 69°
2026-04-16 11:42 50.10155 9.22422 5012 ft 244 kts 64°
2026-04-16 11:42 50.11208 9.24446 5014 ft 242 kts 32°
2026-04-16 11:43 50.12756 9.25309 5016 ft 237 kts 359°
2026-04-16 11:43 50.14327 9.24773 5014 ft 231 kts 327°
2026-04-16 11:43 50.15445 9.23052 5014 ft 227 kts 300°
2026-04-16 11:43 50.16093 9.20825 5016 ft 226 kts 286°
2026-04-16 11:44 50.16540 9.18476 5027 ft 227 kts 284°
2026-04-16 11:44 50.16853 9.16054 5019 ft 230 kts 276°
2026-04-16 11:44 50.17004 9.13570 5013 ft 230 kts 274°
2026-04-16 11:44 50.16784 9.11139 5016 ft 229 kts 242°
2026-04-16 11:45 50.15896 9.09070 5012 ft 230 kts 240°
2026-04-16 11:45 50.15295 9.06823 5013 ft 218 kts 252°
2026-04-16 11:45 50.14821 9.04628 5013 ft 211 kts 251°
2026-04-16 11:45 50.14335 9.02487 5010 ft 209 kts 251°
2026-04-16 11:46 50.13840 9.00359 5007 ft 209 kts 250°
2026-04-16 11:46 50.13344 8.98238 5004 ft 209 kts 250°
2026-04-16 11:46 50.12859 8.96162 5001 ft 197 kts 250°
2026-04-16 11:46 50.12402 8.94213 4989 ft 189 kts 250°
2026-04-16 11:47 50.11951 8.92287 4855 ft 189 kts 250°
2026-04-16 11:47 50.11502 8.90373 4656 ft 187 kts 250°
2026-04-16 11:47 50.11051 8.88459 4320 ft 189 kts 250°
2026-04-16 11:47 50.10597 8.86533 3867 ft 190 kts 250°
2026-04-16 11:48 50.10149 8.84637 3621 ft 180 kts 250°
2026-04-16 11:48 50.09725 8.82830 3545 ft 176 kts 250°
2026-04-16 11:48 50.09313 8.81050 3364 ft 175 kts 250°
2026-04-16 11:48 50.08912 8.79330 3272 ft 158 kts 250°
2026-04-16 11:49 50.08557 8.77778 2996 ft 149 kts 250°
2026-04-16 11:49 50.08216 8.76275 2747 ft 145 kts 250°
2026-04-16 11:49 50.07870 8.74832 2514 ft 142 kts 249°
2026-04-16 11:49 50.07526 8.73427 2270 ft 137 kts 249°
2026-04-16 11:50 50.07197 8.72035 2044 ft 138 kts 249°
2026-04-16 11:50 50.06882 8.70736 1874 ft 138 kts 249°
2026-04-16 11:50 50.06589 8.69517 1751 ft 137 kts 249°
2026-04-16 11:50 50.06261 8.68155 1610 ft 136 kts 249°
2026-04-16 11:51 50.05932 8.66779 1478 ft 137 kts 249°
2026-04-16 11:51 50.05601 8.65389 1298 ft 137 kts 249°
2026-04-16 11:51 50.05273 8.64001 1091 ft 137 kts 250°
2026-04-16 11:51 50.04947 8.62602 930 ft 136 kts 249°
2026-04-16 11:52 50.04620 8.61222 756 ft 136 kts 248°
2026-04-16 11:52 50.04286 8.59845 586 ft 135 kts 247°
2026-04-16 11:52 50.03955 8.58458 405 ft 134 kts 246°
2026-04-16 11:52 50.03652 8.57211 357 ft 111 kts 250°
2026-04-16 11:53 50.03444 8.56323 355 ft 67 kts 250°
2026-04-16 11:53 50.03323 8.55787 346 ft 40 kts 254°
2026-04-16 11:53 50.03328 8.55368 343 ft 32 kts 279°
2026-04-16 11:53 50.03339 8.55261 342 ft 0 kts 280°
2026-04-16 11:54 50.03357 8.55189 351 ft 11 kts 308°
2026-04-16 11:54 50.03415 8.55181 343 ft 8 kts 39°
2026-04-16 11:54 50.03442 8.55263 347 ft 15 kts 69°
2026-04-16 11:55 50.03499 8.55501 349 ft 26 kts 69°
2026-04-16 11:55 50.03562 8.55764 347 ft 26 kts 69°
2026-04-16 11:55 50.03624 8.56025 354 ft 26 kts 69°
2026-04-16 11:55 50.03686 8.56286 356 ft 26 kts 70°
2026-04-16 11:56 50.03751 8.56555 359 ft 27 kts 69°
2026-04-16 11:56 50.03817 8.56837 358 ft 28 kts 69°
2026-04-16 11:56 50.03886 8.57123 362 ft 28 kts 70°
2026-04-16 11:56 50.03952 8.57399 364 ft 27 kts 69°
2026-04-16 11:57 50.04018 8.57673 368 ft 27 kts 70°
2026-04-16 11:57 50.04086 8.57957 370 ft 29 kts 69°
2026-04-16 11:57 50.04156 8.58250 373 ft 29 kts 69°
2026-04-16 11:57 50.04228 8.58547 372 ft 30 kts 69°
2026-04-16 11:58 50.04300 8.58845 373 ft 29 kts 69°
2026-04-16 11:58 50.04370 8.59138 377 ft 29 kts 69°
2026-04-16 11:58 50.04428 8.59378 376 ft 15 kts 69°
2026-04-16 11:58 50.04493 8.59471 375 ft 13 kts
2026-04-16 11:59 50.04557 8.59468 373 ft 0 kts 358°
2026-04-16 11:59 50.04619 8.59463 373 ft 17 kts 356°
2026-04-16 12:00 50.04751 8.59414 372 ft 21 kts 340°
2026-04-16 12:00 50.04844 8.59305 369 ft 18 kts 285°
2026-04-16 12:00 50.04855 8.59223 369 ft 7 kts 341°
2026-04-16 12:00 50.04900 8.59197 366 ft 5 kts 341°
2026-04-16 12:01 50.04920 8.59186 367 ft 0 kts 340°